TimeEST,TemperatureF,Dew PointF,Humidity,Sea Level PressureIn,VisibilityMPH,Wind Direction,Wind SpeedMPH,Gust SpeedMPH,PrecipitationIn,Events,Conditions,WindDirDegrees,DateUTC
12:41 AM,66.2,64.4,94,30.04,6.0,East,5.8,-,N/A,,Overcast,90,2012-12-09 05:41:00
12:53 AM,66.0,64.0,93,30.04,5.0,East,4.6,-,N/A,,Overcast,90,2012-12-09 05:53:00
1:19 AM,66.2,64.4,94,30.03,1.5,ESE,8.1,-,N/A,,Overcast,110,2012-12-09 06:19:00
1:37 AM,66.2,64.4,94,30.03,3.0,East,4.6,-,N/A,,Overcast,90,2012-12-09 06:37:00
1:53 AM,66.0,64.0,93,30.04,4.0,ESE,5.8,-,N/A,,Overcast,110,2012-12-09 06:53:00
2:50 AM,66.2,64.4,94,30.03,8.0,ESE,5.8,-,N/A,,Overcast,110,2012-12-09 07:50:00
2:53 AM,66.0,64.0,93,30.03,8.0,East,8.1,-,N/A,,Overcast,100,2012-12-09 07:53:00
3:01 AM,66.2,64.4,94,30.03,8.0,East,5.8,-,N/A,,Overcast,100,2012-12-09 08:01:00
3:26 AM,66.2,64.4,94,30.02,9.0,ESE,4.6,-,N/A,,Overcast,110,2012-12-09 08:26:00
3:48 AM,66.2,64.4,94,30.03,8.0,ESE,8.1,-,N/A,,Overcast,120,2012-12-09 08:48:00
3:53 AM,66.0,64.0,93,30.03,7.0,ESE,5.8,-,N/A,,Overcast,120,2012-12-09 08:53:00
4:53 AM,66.0,64.0,93,30.03,6.0,ESE,6.9,-,N/A,,Overcast,110,2012-12-09 09:53:00
5:32 AM,66.2,64.4,94,30.04,10.0,East,5.8,-,N/A,,Overcast,100,2012-12-09 10:32:00
5:48 AM,66.2,64.4,94,30.04,10.0,East,6.9,-,N/A,,Overcast,100,2012-12-09 10:48:00
5:53 AM,66.0,64.0,93,30.04,10.0,East,4.6,-,N/A,,Overcast,100,2012-12-09 10:53:00
6:53 AM,66.2,62.6,88,30.06,10.0,East,5.8,-,N/A,,Overcast,90,2012-12-09 11:53:00
7:23 AM,64.4,62.6,94,30.07,9.0,East,3.5,-,N/A,,Mostly Cloudy,80,2012-12-09 12:23:00
7:34 AM,64.4,62.6,94,30.07,8.0,East,3.5,-,N/A,,Mostly Cloudy,100,2012-12-09 12:34:00
7:53 AM,64.9,63.0,93,30.08,7.0,ENE,3.5,-,N/A,,Scattered Clouds,60,2012-12-09 12:53:00
8:06 AM,64.4,62.6,94,30.08,6.0,ENE,4.6,-,N/A,,Mostly Cloudy,60,2012-12-09 13:06:00
8:43 AM,66.2,62.6,88,30.09,10.0,East,3.5,-,N/A,,Overcast,80,2012-12-09 13:43:00
8:53 AM,66.9,64.0,90,30.09,10.0,East,4.6,-,N/A,,Overcast,90,2012-12-09 13:53:00
9:53 AM,69.1,63.0,81,30.10,10.0,ESE,6.9,-,N/A,,Mostly Cloudy,120,2012-12-09 14:53:00
10:00 AM,69.8,62.6,78,30.10,10.0,ESE,5.8,-,N/A,,Scattered Clouds,110,2012-12-09 15:00:00
10:53 AM,72.0,63.0,73,30.10,10.0,SSE,4.6,-,N/A,,Scattered Clouds,160,2012-12-09 15:53:00
11:53 AM,72.0,63.0,73,30.09,10.0,SE,6.9,-,N/A,,Clear,130,2012-12-09 16:53:00
12:53 PM,72.0,64.0,76,30.06,10.0,SSE,6.9,-,N/A,,Clear,160,2012-12-09 17:53:00
1:53 PM,72.0,64.0,76,30.04,10.0,SSE,9.2,-,N/A,,Clear,150,2012-12-09 18:53:00
2:53 PM,72.0,64.9,78,30.03,10.0,SSE,10.4,-,N/A,,Clear,160,2012-12-09 19:53:00
3:22 PM,71.6,64.4,78,30.03,10.0,SSE,6.9,-,N/A,,Partly Cloudy,150,2012-12-09 20:22:00
3:53 PM,71.1,64.9,81,30.03,10.0,South,6.9,-,N/A,,Partly Cloudy,180,2012-12-09 20:53:00
4:45 PM,69.8,64.4,83,30.02,10.0,South,5.8,-,N/A,,Mostly Cloudy,180,2012-12-09 21:45:00
4:53 PM,70.0,64.9,84,30.02,10.0,SSE,6.9,-,N/A,,Mostly Cloudy,160,2012-12-09 21:53:00
5:37 PM,68.0,64.4,88,30.02,10.0,South,5.8,-,N/A,,Scattered Clouds,180,2012-12-09 22:37:00
5:53 PM,66.9,64.0,90,30.03,10.0,ESE,3.5,-,N/A,,Partly Cloudy,110,2012-12-09 22:53:00
6:12 PM,66.2,64.4,94,30.03,10.0,SSE,4.6,-,N/A,,Mostly Cloudy,150,2012-12-09 23:12:00
6:43 PM,66.2,64.4,94,30.03,10.0,Calm,Calm,-,N/A,,Scattered Clouds,0,2012-12-09 23:43:00
6:53 PM,66.9,64.0,90,30.03,9.0,Calm,Calm,-,N/A,,Partly Cloudy,0,2012-12-09 23:53:00
7:53 PM,64.9,63.0,93,30.04,8.0,SSE,4.6,-,N/A,,Clear,150,2012-12-10 00:53:00
8:53 PM,66.9,64.9,93,30.03,10.0,South,6.9,-,N/A,,Clear,170,2012-12-10 01:53:00
9:53 PM,66.0,64.0,93,30.03,10.0,SSE,4.6,-,N/A,,Clear,160,2012-12-10 02:53:00
10:53 PM,66.9,64.0,90,30.02,10.0,South,5.8,-,N/A,,Clear,180,2012-12-10 03:53:00
11:53 PM,66.0,64.0,93,30.01,10.0,South,3.5,-,N/A,,Clear,180,2012-12-10 04:53:00